Starlink 1557

operational
NORAD ID: 46034 Int'l Des: 2020-055 Owner: SPXS Country: US Constellation: starlink
LEOCIRCULARSTARLINK_TYPE

About Starlink 1557

Description loading...

Live Position

Loading 3D Globe...

Upcoming Passes

Altitude History

Altitude vs Time

uPlot chart will show altitude changes over time

Two-Line Element Set

1 46034U 20055H 25304.49618628 .00004727 00000-0 33613-3 0 9996
2 46034 53.0553 346.5907 0001460 92.0636 268.0520 15.06390216289398
Epoch: Oct 31, 2025 • Age: 28 hours

Current Status

Altitude 566.2 km
Velocity 7.58 km/s
Sub-Earth Point -52.04°S, 48.33°W
Launch Date Aug 7, 2020
Age 5.2 years
Type internet

Technical Details

Classification Payload
Mass 260.00 kg
Dry Mass 248.00 kg
Total Mass 260.00 kg
Length 0.20 m
Diameter 2.80 m
Span 9.00 m
Shape Box + pan
Manufacturer SPXS
Bus Type Starlink
Phase Status In Orbit
Owner/State SPXS/US

Large Constellations

Loading constellations...